Flag for Switzerland Weather past 2 weeks in Sion, Valais, Switzerland

Now
75 °F

Mild.


Feels Like: 78 °F
Forecast: 62 / 78 °F
Wind: 3 mph from South

Location: Sion

Current Time: Sep 19, 2014 at 4:23:29 PM

Latest Report: Sep 19, 2014 at 3:00 PM


Visibility: N/A

Pressure: 29.92 "Hg

Humidity: 49%

Dew point: 54 °F

Location of SionLocation

Historic Weather in Sion — Graph

°F

Sion temperature yesterday

Maximum temperature yesterday: 73 °F (at 5:00 PM)
Minimum temperature yesterday: 59 °F (at 6:00 AM)
Average temperature yesterday: 65 °F

Past Weeks' High & Low Weather Summary

 TemperatureHumidityPressure
High82 °F (Sep 8, 5:00 PM)98% (Sep 10, 12:00 AM)30.13 "Hg (Sep 10, 12:00 AM)
Low49 °F (Sep 13, 7:00 AM)40% (Sep 7, 4:00 PM)29.77 "Hg (Sep 6, 5:00 PM)
Average65 °F70%29.95 "Hg
* Reported Sep 4 3:00 PM — Sep 19 3:00 PM, Sion, Weather by CustomWeather, © 2014

Note: Actual official high and low records may vary slightly from our data, if they occured in-between our weather recording intervals... More about our weather records

Advertising

Sion weather history for previous 24 hours

 ConditionsComfort  
Time TempWeatherWind HumidityBarometerVisibility
3:00 PM
Sep 19
75 °FMild.3 mph49%29.92 "HgN/A
2:00 PM72 °FOvercast.1 mph49%29.95 "Hg12 mi
1:00 PM70 °FMild.2 mph58%29.97 "HgN/A
12:00 PM66 °FMild.3 mph70%30.00 "HgN/A
11:00 AM64 °FPartly sunny.2 mph68%30.01 "Hg12 mi
10:00 AM62 °FMild.3 mph73%30.01 "HgN/A
9:00 AM61 °FCool.2 mph75%30.00 "HgN/A
8:00 AM60 °FOvercast.7 mph73%30.00 "Hg9 mi
7:00 AM58 °FCool.6 mph80%30.00 "HgN/A
6:00 AM59 °FCool.6 mph79%30.00 "HgN/A
5:00 AM59 °FPassing clouds.3 mph80%30.00 "Hg9 mi
4:00 AM61 °FCool.8 mph75%29.99 "HgN/A
3:00 AM60 °FCool.5 mph77%30.01 "HgN/A
2:00 AM60 °FPassing clouds.3 mph79%30.01 "Hg16 mi
1:00 AM61 °FCool.3 mph75%30.01 "HgN/A
12:00 AM62 °FCool.5 mph75%30.00 "HgN/A
11:00 PM
Sep 18
64 °FPassing clouds.5 mph70%29.98 "Hg16 mi
10:00 PM61 °FCool.1 mph80%29.99 "HgN/A
9:00 PM62 °FCool.1 mph81%29.96 "HgN/A
8:00 PM67 °FOvercast.2 mph65%29.91 "Hg19 mi
7:00 PM69 °FMild.1 mph67%29.91 "HgN/A
6:00 PM71 °FMild.3 mph54%29.89 "HgN/A
5:00 PM73 °FOvercast.3 mph49%29.89 "Hg19 mi
4:00 PM71 °FMild.1 mph65%29.90 "HgN/A
Weather by CustomWeather, © 2014

See weather overviewHow to use our weather pages